Time,TemperatureF,DewpointF,PressureIn,WindDirection,WindDirectionDegrees,WindSpeedMPH,WindSpeedGustMPH,Humidity,HourlyPrecipIn,Conditions,Clouds,dailyrainin,SoftwareType,DateUTC
2013-05-27 00:03:00,45.8,42.0,29.93,ESE,104,0.0,1.0,86,0.00,,,0.00,weatherlink.com 1.10,2013-05-27 04:03:00,
2013-05-27 00:18:00,45.3,41.0,29.94,ESE,119,0.0,1.0,86,0.00,,,0.00,weatherlink.com 1.10,2013-05-27 04:18:00,
2013-05-27 00:33:00,45.2,41.0,29.95,ESE,110,1.0,3.0,86,0.00,,,0.00,weatherlink.com 1.10,2013-05-27 04:33:00,
2013-05-27 00:48:00,44.7,41.0,29.95,East,93,0.0,1.0,86,0.00,,,0.00,weatherlink.com 1.10,2013-05-27 04:48:00,
2013-05-27 01:03:00,44.6,41.0,29.95,ENE,75,0.0,2.0,87,0.00,,,0.00,weatherlink.com 1.10,2013-05-27 05:03:00,
2013-05-27 01:18:00,44.9,41.0,29.96,East,80,1.0,3.0,87,0.00,,,0.00,weatherlink.com 1.10,2013-05-27 05:18:00,
2013-05-27 01:33:00,44.4,41.0,29.96,SE,141,1.0,1.0,88,0.00,,,0.00,weatherlink.com 1.10,2013-05-27 05:33:00,
2013-05-27 01:48:00,44.1,41.0,29.96,ESE,119,0.0,2.0,88,0.00,,,0.00,weatherlink.com 1.10,2013-05-27 05:48:00,
2013-05-27 02:04:00,44.1,41.0,29.96,West,275,0.0,2.0,88,0.00,,,0.00,weatherlink.com 1.10,2013-05-27 06:04:00,
2013-05-27 02:19:00,43.8,41.0,29.97,East,82,0.0,1.0,88,0.00,,,0.00,weatherlink.com 1.10,2013-05-27 06:19:00,
2013-05-27 02:34:00,43.5,40.0,29.97,ESE,108,0.0,1.0,88,0.00,,,0.00,weatherlink.com 1.10,2013-05-27 06:34:00,
2013-05-27 02:49:00,43.2,40.0,29.97,ESE,122,0.0,1.0,88,0.00,,,0.00,weatherlink.com 1.10,2013-05-27 06:49:00,
2013-05-27 03:04:00,43.5,40.0,29.97,ENE,75,0.0,3.0,87,0.00,,,0.00,weatherlink.com 1.10,2013-05-27 07:04:00,
2013-05-27 03:19:00,43.3,40.0,29.98,East,101,0.0,1.0,88,0.00,,,0.00,weatherlink.com 1.10,2013-05-27 07:19:00,
2013-05-27 03:34:00,43.1,40.0,29.98,SE,125,0.0,1.0,88,0.00,,,0.00,weatherlink.com 1.10,2013-05-27 07:34:00,
2013-05-27 03:49:00,42.9,40.0,29.98,East,88,0.0,2.0,88,0.00,,,0.00,weatherlink.com 1.10,2013-05-27 07:49:00,
2013-05-27 04:04:00,43.2,40.0,29.99,East,86,0.0,3.0,87,0.00,,,0.00,weatherlink.com 1.10,2013-05-27 08:04:00,
2013-05-27 04:19:00,43.1,40.0,29.99,East,91,0.0,2.0,87,0.00,,,0.00,weatherlink.com 1.10,2013-05-27 08:19:00,
2013-05-27 04:34:00,43.1,40.0,30.00,ESE,113,1.0,4.0,87,0.00,,,0.00,weatherlink.com 1.10,2013-05-27 08:34:00,
2013-05-27 04:49:00,43.2,40.0,30.00,East,98,1.0,2.0,87,0.00,,,0.00,weatherlink.com 1.10,2013-05-27 08:49:00,
2013-05-27 05:04:00,43.2,39.0,30.01,East,88,1.0,3.0,86,0.00,,,0.00,weatherlink.com 1.10,2013-05-27 09:04:00,
2013-05-27 05:19:00,43.5,39.0,30.01,NE,51,2.0,2.0,85,0.00,,,0.00,weatherlink.com 1.10,2013-05-27 09:19:00,
2013-05-27 05:34:00,44.2,40.0,30.01,WSW,238,2.0,2.0,85,0.00,,,0.00,weatherlink.com 1.10,2013-05-27 09:34:00,
2013-05-27 05:49:00,45.4,40.0,30.01,SE,125,0.0,2.0,82,0.00,,,0.00,weatherlink.com 1.10,2013-05-27 09:49:00,
2013-05-27 06:04:00,45.6,40.0,30.02,ENE,60,0.0,4.0,82,0.00,,,0.00,weatherlink.com 1.10,2013-05-27 10:04:00,
2013-05-27 06:19:00,46.1,40.0,30.03,NNW,339,2.0,4.0,80,0.00,,,0.00,weatherlink.com 1.10,2013-05-27 10:19:00,
2013-05-27 06:34:00,47.1,40.0,30.03,NE,34,1.0,6.0,77,0.00,,,0.00,weatherlink.com 1.10,2013-05-27 10:34:00,
2013-05-27 06:49:00,48.8,40.0,30.03,ESE,120,1.0,5.0,73,0.00,,,0.00,weatherlink.com 1.10,2013-05-27 10:49:00,
2013-05-27 07:04:00,50.2,41.0,30.03,ENE,67,0.0,4.0,71,0.00,,,0.00,weatherlink.com 1.10,2013-05-27 11:04:00,
2013-05-27 07:19:00,51.7,42.0,30.03,WSW,239,3.0,4.0,69,0.00,,,0.00,weatherlink.com 1.10,2013-05-27 11:19:00,
2013-05-27 07:34:00,52.3,40.0,30.03,NNE,22,1.0,4.0,64,0.00,,,0.00,weatherlink.com 1.10,2013-05-27 11:34:00,
2013-05-27 07:49:00,53.1,41.0,30.03,SSE,155,4.0,6.0,64,0.00,,,0.00,weatherlink.com 1.10,2013-05-27 11:49:00,
2013-05-27 08:04:00,54.2,42.0,30.03,SSE,160,2.0,6.0,64,0.00,,,0.00,weatherlink.com 1.10,2013-05-27 12:04:00,
2013-05-27 08:19:00,54.6,42.0,30.03,East,98,1.0,3.0,62,0.00,,,0.00,weatherlink.com 1.10,2013-05-27 12:19:00,
2013-05-27 08:34:00,55.2,41.0,30.03,ENE,77,3.0,6.0,59,0.00,,,0.00,weatherlink.com 1.10,2013-05-27 12:34:00,
2013-05-27 08:50:00,56.1,43.0,30.03,East,97,1.0,4.0,61,0.00,,,0.00,weatherlink.com 1.10,2013-05-27 12:50:00,
2013-05-27 09:05:00,56.8,43.0,30.02,NNW,347,3.0,8.0,60,0.00,,,0.00,weatherlink.com 1.10,2013-05-27 13:05:00,
2013-05-27 09:20:00,57.3,43.0,30.02,NE,52,1.0,5.0,60,0.00,,,0.00,weatherlink.com 1.10,2013-05-27 13:20:00,
2013-05-27 09:35:00,57.5,44.0,30.02,NE,52,3.0,6.0,60,0.00,,,0.00,weatherlink.com 1.10,2013-05-27 13:35:00,
2013-05-27 09:50:00,58.0,42.0,30.01,North,1,6.0,7.0,55,0.00,,,0.00,weatherlink.com 1.10,2013-05-27 13:50:00,
2013-05-27 10:05:00,58.6,44.0,30.01,East,85,1.0,7.0,58,0.00,,,0.00,weatherlink.com 1.10,2013-05-27 14:05:00,
2013-05-27 10:20:00,59.4,42.0,30.01,NNE,15,4.0,5.0,53,0.00,,,0.00,weatherlink.com 1.10,2013-05-27 14:20:00,
2013-05-27 10:35:00,59.8,43.0,30.02,East,86,1.0,6.0,54,0.00,,,0.00,weatherlink.com 1.10,2013-05-27 14:35:00,
2013-05-27 10:50:00,60.5,40.0,30.02,North,1,2.0,10.0,48,0.00,,,0.00,weatherlink.com 1.10,2013-05-27 14:50:00,
2013-05-27 11:05:00,60.6,42.0,30.01,ESE,104,1.0,6.0,50,0.00,,,0.00,weatherlink.com 1.10,2013-05-27 15:05:00,
2013-05-27 11:20:00,61.0,38.0,30.01,ENE,58,4.0,9.0,43,0.00,,,0.00,weatherlink.com 1.10,2013-05-27 15:20:00,
2013-05-27 11:35:00,61.3,38.0,30.01,ENE,78,3.0,12.0,43,0.00,,,0.00,weatherlink.com 1.10,2013-05-27 15:35:00,
2013-05-27 11:50:00,61.8,38.0,30.00,NE,49,8.0,11.0,42,0.00,,,0.00,weatherlink.com 1.10,2013-05-27 15:50:00,
2013-05-27 12:05:00,62.2,38.0,30.00,NE,37,3.0,9.0,41,0.00,,,0.00,weatherlink.com 1.10,2013-05-27 16:05:00,
2013-05-27 12:20:00,63.1,38.0,30.00,NE,40,3.0,11.0,39,0.00,,,0.00,weatherlink.com 1.10,2013-05-27 16:20:00,
2013-05-27 12:35:00,63.6,36.0,29.99,NNE,20,2.0,7.0,36,0.00,,,0.00,weatherlink.com 1.10,2013-05-27 16:35:00,
2013-05-27 12:50:00,64.7,39.0,29.99,ENE,65,1.0,7.0,39,0.00,,,0.00,weatherlink.com 1.10,2013-05-27 16:50:00,
2013-05-27 13:05:00,64.3,37.0,29.98,NNE,19,4.0,7.0,37,0.00,,,0.00,weatherlink.com 1.10,2013-05-27 17:05:00,
2013-05-27 13:20:00,65.2,35.0,29.99,ENE,63,2.0,8.0,33,0.00,,,0.00,weatherlink.com 1.10,2013-05-27 17:20:00,
2013-05-27 13:35:00,65.4,35.0,29.99,NNW,334,3.0,12.0,32,0.00,,,0.00,weatherlink.com 1.10,2013-05-27 17:35:00,
2013-05-27 13:50:00,65.4,34.0,29.99,SE,124,2.0,10.0,31,0.00,,,0.00,weatherlink.com 1.10,2013-05-27 17:50:00,
2013-05-27 14:05:00,66.0,35.0,29.98,ESE,115,1.0,9.0,32,0.00,,,0.00,weatherlink.com 1.10,2013-05-27 18:05:00,
2013-05-27 14:20:00,65.9,36.0,29.98,NNE,24,4.0,10.0,33,0.00,,,0.00,weatherlink.com 1.10,2013-05-27 18:20:00,
2013-05-27 14:35:00,66.5,34.0,29.98,NNE,27,5.0,9.0,30,0.00,,,0.00,weatherlink.com 1.10,2013-05-27 18:35:00,
2013-05-27 14:50:00,66.6,36.0,29.98,NE,39,1.0,10.0,33,0.00,,,0.00,weatherlink.com 1.10,2013-05-27 18:50:00,
2013-05-27 15:05:00,66.4,34.0,29.98,East,84,8.0,11.0,30,0.00,,,0.00,weatherlink.com 1.10,2013-05-27 19:05:00,
2013-05-27 15:20:00,65.8,33.0,29.98,SE,136,4.0,9.0,30,0.00,,,0.00,weatherlink.com 1.10,2013-05-27 19:20:00,
2013-05-27 15:35:00,66.3,34.0,29.98,ESE,115,2.0,12.0,30,0.00,,,0.00,weatherlink.com 1.10,2013-05-27 19:35:00,
2013-05-27 15:50:00,66.5,36.0,29.99,SSE,155,1.0,8.0,32,0.00,,,0.00,weatherlink.com 1.10,2013-05-27 19:50:00,
2013-05-27 16:05:00,66.5,34.0,29.99,SE,146,7.0,13.0,30,0.00,,,0.00,weatherlink.com 1.10,2013-05-27 20:05:00,
2013-05-27 16:20:00,65.5,33.0,30.00,SSE,155,5.0,8.0,30,0.00,,,0.00,weatherlink.com 1.10,2013-05-27 20:20:00,
2013-05-27 16:35:00,64.8,33.0,29.99,SSE,159,3.0,10.0,31,0.00,,,0.00,weatherlink.com 1.10,2013-05-27 20:35:00,
2013-05-27 16:50:00,65.4,35.0,30.00,SE,136,5.0,8.0,32,0.00,,,0.00,weatherlink.com 1.10,2013-05-27 20:50:00,
2013-05-27 17:05:00,65.4,34.0,30.00,SE,131,4.0,10.0,31,0.00,,,0.00,weatherlink.com 1.10,2013-05-27 21:05:00,
2013-05-27 17:21:00,65.5,36.0,30.00,SE,139,3.0,9.0,33,0.00,,,0.00,weatherlink.com 1.10,2013-05-27 21:21:00,
2013-05-27 17:36:00,65.8,34.0,30.01,SE,128,6.0,8.0,31,0.00,,,0.00,weatherlink.com 1.10,2013-05-27 21:36:00,
2013-05-27 17:52:00,66.2,35.0,30.01,SE,139,1.0,4.0,31,0.00,,,0.00,weatherlink.com 1.10,2013-05-27 21:52:00,
2013-05-27 18:06:00,66.2,35.0,30.02,SE,135,5.0,7.0,31,0.00,,,0.00,weatherlink.com 1.10,2013-05-27 22:06:00,
2013-05-27 18:21:00,65.2,34.0,30.03,SE,138,5.0,7.0,31,0.00,,,0.00,weatherlink.com 1.10,2013-05-27 22:21:00,
2013-05-27 18:36:00,64.9,34.0,30.03,SE,133,1.0,6.0,32,0.00,,,0.00,weatherlink.com 1.10,2013-05-27 22:36:00,
2013-05-27 18:51:00,64.2,34.0,30.04,ESE,113,0.0,4.0,33,0.00,,,0.00,weatherlink.com 1.10,2013-05-27 22:51:00,
2013-05-27 19:06:00,64.4,36.0,30.05,ESE,115,1.0,6.0,35,0.00,,,0.00,weatherlink.com 1.10,2013-05-27 23:06:00,
2013-05-27 19:21:00,63.8,35.0,30.06,ESE,122,1.0,3.0,34,0.00,,,0.00,weatherlink.com 1.10,2013-05-27 23:21:00,
2013-05-27 19:36:00,63.1,36.0,30.06,SE,128,2.0,3.0,36,0.00,,,0.00,weatherlink.com 1.10,2013-05-27 23:36:00,
2013-05-27 19:51:00,62.1,36.0,30.07,SE,132,1.0,4.0,38,0.00,,,0.00,weatherlink.com 1.10,2013-05-27 23:51:00,
2013-05-27 20:06:00,60.9,37.0,30.07,SE,132,0.0,1.0,41,0.00,,,0.00,weatherlink.com 1.10,2013-05-28 00:06:00,
2013-05-27 20:21:00,59.8,36.0,30.08,ESE,120,0.0,1.0,42,0.00,,,0.00,weatherlink.com 1.10,2013-05-28 00:21:00,
2013-05-27 20:36:00,58.4,37.0,30.09,ESE,120,0.0,1.0,45,0.00,,,0.00,weatherlink.com 1.10,2013-05-28 00:36:00,
2013-05-27 20:51:00,55.8,41.0,30.10,SE,131,0.0,1.0,59,0.00,,,0.00,weatherlink.com 1.10,2013-05-28 00:51:00,
2013-05-27 21:06:00,53.4,40.0,30.10,SE,135,1.0,1.0,61,0.00,,,0.00,weatherlink.com 1.10,2013-05-28 01:06:00,
2013-05-27 21:21:00,52.4,42.0,30.10,SE,135,1.0,1.0,68,0.00,,,0.00,weatherlink.com 1.10,2013-05-28 01:21:00,
2013-05-27 21:36:00,51.2,42.0,30.11,SE,135,0.0,1.0,71,0.00,,,0.00,weatherlink.com 1.10,2013-05-28 01:36:00,
2013-05-27 21:51:00,50.3,42.0,30.11,SE,135,0.0,1.0,74,0.00,,,0.00,weatherlink.com 1.10,2013-05-28 01:51:00,
2013-05-27 22:06:00,49.0,42.0,30.11,SE,135,0.0,1.0,76,0.00,,,0.00,weatherlink.com 1.10,2013-05-28 02:06:00,
2013-05-27 22:21:00,48.2,41.0,30.12,SE,135,0.0,0.0,77,0.00,,,0.00,weatherlink.com 1.10,2013-05-28 02:21:00,
2013-05-27 22:36:00,47.6,42.0,30.12,SE,135,0.0,1.0,80,0.00,,,0.00,weatherlink.com 1.10,2013-05-28 02:36:00,
2013-05-27 22:51:00,47.0,42.0,30.13,SE,129,0.0,7.0,82,0.00,,,0.00,weatherlink.com 1.10,2013-05-28 02:51:00,
2013-05-27 23:06:00,47.1,41.0,30.13,SE,129,0.0,1.0,78,0.00,,,0.00,weatherlink.com 1.10,2013-05-28 03:06:00,
2013-05-27 23:21:00,46.3,41.0,30.14,SE,130,0.0,1.0,83,0.00,,,0.00,weatherlink.com 1.10,2013-05-28 03:21:00,
2013-05-27 23:36:00,46.0,40.0,30.14,SE,129,0.0,0.0,80,0.00,,,0.00,weatherlink.com 1.10,2013-05-28 03:36:00,
2013-05-27 23:51:00,45.4,40.0,30.14,SE,131,0.0,2.0,82,0.00,,,0.00,weatherlink.com 1.10,2013-05-28 03:51:00,